TimeCST,TemperatureF,Dew PointF,Humidity,Sea Level PressureIn,VisibilityMPH,Wind Direction,Wind SpeedMPH,Gust SpeedMPH,PrecipitationIn,Events,Conditions,WindDirDegrees,DateUTC
12:15 AM,23.0,12.2,63,29.99,10.0,NNW,10.4,-,N/A,,Overcast,340,2013-02-15 06:15:00
12:35 AM,21.2,12.2,68,30.00,10.0,NNW,12.7,-,N/A,,Overcast,330,2013-02-15 06:35:00
12:55 AM,21.2,12.2,68,30.00,10.0,NNW,6.9,-,N/A,,Overcast,340,2013-02-15 06:55:00
1:15 AM,21.2,10.4,63,30.01,10.0,NNW,11.5,-,N/A,,Overcast,330,2013-02-15 07:15:00
1:35 AM,19.4,8.6,63,30.01,10.0,NNW,8.1,-,N/A,,Mostly Cloudy,330,2013-02-15 07:35:00
1:55 AM,19.4,8.6,63,30.01,10.0,NNW,11.5,18.4,N/A,,Partly Cloudy,330,2013-02-15 07:55:00
2:15 AM,17.6,6.8,63,30.02,10.0,NW,6.9,-,N/A,,Clear,320,2013-02-15 08:15:00
2:35 AM,17.6,6.8,63,30.02,10.0,NW,10.4,-,N/A,,Clear,320,2013-02-15 08:35:00
2:55 AM,19.4,6.8,58,30.03,10.0,NNW,9.2,-,N/A,,Mostly Cloudy,330,2013-02-15 08:55:00
3:15 AM,19.4,6.8,58,30.03,10.0,NW,9.2,-,N/A,,Scattered Clouds,310,2013-02-15 09:15:00
3:35 AM,19.4,8.6,63,30.03,10.0,NW,8.1,-,N/A,,Mostly Cloudy,310,2013-02-15 09:35:00
3:55 AM,19.4,8.6,63,30.03,10.0,WNW,11.5,-,N/A,,Scattered Clouds,300,2013-02-15 09:55:00
4:15 AM,17.6,8.6,68,30.04,10.0,WNW,10.4,-,N/A,,Scattered Clouds,300,2013-02-15 10:15:00
4:35 AM,17.6,8.6,68,30.05,10.0,WNW,9.2,-,N/A,,Clear,300,2013-02-15 10:35:00
4:55 AM,17.6,6.8,63,30.06,10.0,West,8.1,-,N/A,,Clear,280,2013-02-15 10:55:00
5:15 AM,15.8,6.8,68,30.07,10.0,WNW,9.2,-,N/A,,Clear,290,2013-02-15 11:15:00
5:35 AM,15.8,6.8,68,30.08,10.0,WNW,8.1,-,N/A,,Clear,290,2013-02-15 11:35:00
5:55 AM,15.8,6.8,68,30.08,10.0,WNW,8.1,-,N/A,,Clear,290,2013-02-15 11:55:00
6:15 AM,14.0,5.0,67,30.09,10.0,WNW,8.1,-,N/A,,Clear,290,2013-02-15 12:15:00
6:35 AM,14.0,6.8,73,30.10,10.0,West,8.1,-,N/A,,Clear,280,2013-02-15 12:35:00
6:55 AM,14.0,6.8,73,30.10,10.0,West,8.1,-,N/A,,Clear,280,2013-02-15 12:55:00
7:15 AM,12.2,6.8,79,30.10,10.0,WNW,9.2,-,N/A,,Clear,290,2013-02-15 13:15:00
7:35 AM,14.0,6.8,73,30.11,10.0,WNW,8.1,-,N/A,,Clear,290,2013-02-15 13:35:00
7:55 AM,14.0,6.8,73,30.12,10.0,West,9.2,-,N/A,,Clear,280,2013-02-15 13:55:00
8:15 AM,15.8,6.8,68,30.13,10.0,West,8.1,-,N/A,,Clear,280,2013-02-15 14:15:00
8:35 AM,15.8,6.8,68,30.13,10.0,WNW,9.2,-,N/A,,Clear,290,2013-02-15 14:35:00
8:55 AM,15.8,6.8,68,30.14,10.0,WNW,6.9,-,N/A,,Clear,290,2013-02-15 14:55:00
9:15 AM,17.6,8.6,68,30.14,10.0,West,8.1,-,N/A,,Clear,280,2013-02-15 15:15:00
9:35 AM,17.6,8.6,68,30.14,10.0,West,6.9,-,N/A,,Clear,260,2013-02-15 15:35:00
9:55 AM,17.6,8.6,68,30.14,10.0,West,9.2,-,N/A,,Clear,280,2013-02-15 15:55:00
10:15 AM,17.6,8.6,68,30.14,10.0,West,8.1,-,N/A,,Clear,270,2013-02-15 16:15:00
10:35 AM,19.4,8.6,63,30.14,10.0,West,6.9,-,N/A,,Clear,270,2013-02-15 16:35:00
10:55 AM,19.4,8.6,63,30.14,10.0,West,9.2,-,N/A,,Clear,270,2013-02-15 16:55:00
11:15 AM,19.4,8.6,63,30.14,10.0,West,6.9,-,N/A,,Partly Cloudy,270,2013-02-15 17:15:00
11:55 AM,21.2,8.6,58,30.13,10.0,West,10.4,-,N/A,,Clear,270,2013-02-15 17:55:00
12:15 PM,21.2,8.6,58,30.12,10.0,West,10.4,-,N/A,,Clear,280,2013-02-15 18:15:00
12:35 PM,21.2,8.6,58,30.12,10.0,West,11.5,16.1,N/A,,Clear,260,2013-02-15 18:35:00
12:55 PM,21.2,8.6,58,30.12,10.0,West,10.4,-,N/A,,Clear,270,2013-02-15 18:55:00
1:15 PM,21.2,8.6,58,30.11,10.0,West,8.1,-,N/A,,Clear,260,2013-02-15 19:15:00
1:35 PM,23.0,10.4,59,30.11,10.0,WSW,10.4,-,N/A,,Scattered Clouds,250,2013-02-15 19:35:00
1:55 PM,23.0,10.4,59,30.11,10.0,WSW,12.7,-,N/A,,Overcast,250,2013-02-15 19:55:00
2:15 PM,23.0,10.4,59,30.11,10.0,West,11.5,16.1,N/A,,Overcast,260,2013-02-15 20:15:00
2:35 PM,23.0,10.4,59,30.11,10.0,West,11.5,-,N/A,,Mostly Cloudy,260,2013-02-15 20:35:00
2:55 PM,21.2,10.4,63,30.11,10.0,West,11.5,-,N/A,,Scattered Clouds,260,2013-02-15 20:55:00
3:15 PM,21.2,8.6,58,30.11,10.0,WSW,12.7,-,N/A,,Clear,250,2013-02-15 21:15:00
3:35 PM,23.0,8.6,54,30.12,10.0,West,11.5,-,N/A,,Clear,270,2013-02-15 21:35:00
3:55 PM,23.0,8.6,54,30.12,10.0,West,10.4,-,N/A,,Scattered Clouds,260,2013-02-15 21:55:00
4:15 PM,23.0,6.8,50,30.12,10.0,WSW,10.4,-,N/A,,Mostly Cloudy,250,2013-02-15 22:15:00
4:35 PM,21.2,6.8,54,30.12,10.0,West,8.1,-,N/A,,Mostly Cloudy,260,2013-02-15 22:35:00
4:55 PM,21.2,6.8,54,30.13,10.0,WSW,8.1,-,N/A,,Overcast,250,2013-02-15 22:55:00
5:15 PM,21.2,6.8,54,30.13,10.0,West,11.5,-,N/A,,Overcast,260,2013-02-15 23:15:00
5:35 PM,21.2,6.8,54,30.13,10.0,WSW,9.2,-,N/A,,Overcast,250,2013-02-15 23:35:00
5:55 PM,19.4,6.8,58,30.13,10.0,West,12.7,-,N/A,,Mostly Cloudy,260,2013-02-15 23:55:00
6:15 PM,19.4,5.0,54,30.14,10.0,West,9.2,-,N/A,,Mostly Cloudy,260,2013-02-16 00:15:00
6:35 PM,19.4,5.0,54,30.14,10.0,West,8.1,-,N/A,,Overcast,260,2013-02-16 00:35:00
6:55 PM,19.4,5.0,54,30.14,10.0,West,10.4,-,N/A,,Overcast,270,2013-02-16 00:55:00
7:15 PM,19.4,5.0,54,30.13,10.0,West,12.7,-,N/A,,Overcast,260,2013-02-16 01:15:00
7:35 PM,19.4,5.0,54,30.14,10.0,West,11.5,17.3,N/A,,Overcast,270,2013-02-16 01:35:00
7:55 PM,19.4,6.8,58,30.14,10.0,West,11.5,-,N/A,,Overcast,280,2013-02-16 01:55:00
8:15 PM,19.4,6.8,58,30.14,10.0,West,9.2,-,N/A,,Overcast,270,2013-02-16 02:15:00
8:35 PM,19.4,6.8,58,30.14,10.0,West,10.4,-,N/A,,Overcast,280,2013-02-16 02:35:00
8:55 PM,19.4,6.8,58,30.14,10.0,West,10.4,-,N/A,,Overcast,280,2013-02-16 02:55:00
9:15 PM,19.4,8.6,63,30.14,10.0,WNW,11.5,-,N/A,,Overcast,300,2013-02-16 03:15:00
9:35 PM,17.6,6.8,63,30.15,10.0,NW,10.4,-,N/A,,Overcast,320,2013-02-16 03:35:00
9:55 PM,17.6,6.8,63,30.15,10.0,NW,11.5,-,N/A,,Overcast,320,2013-02-16 03:55:00
10:15 PM,17.6,5.0,58,30.15,10.0,NW,13.8,17.3,N/A,,Overcast,310,2013-02-16 04:15:00
10:35 PM,15.8,3.2,58,30.15,10.0,NNW,15.0,-,N/A,,Overcast,330,2013-02-16 04:35:00
10:55 PM,15.8,3.2,58,30.15,10.0,NW,16.1,23.0,N/A,,Overcast,310,2013-02-16 04:55:00
11:15 PM,15.8,3.2,58,30.14,10.0,NW,9.2,-,N/A,,Overcast,310,2013-02-16 05:15:00
11:35 PM,15.8,3.2,58,30.14,10.0,NW,9.2,-,N/A,,Overcast,320,2013-02-16 05:35:00
11:55 PM,14.0,1.4,57,30.14,10.0,NNW,16.1,-,N/A,,Overcast,330,2013-02-16 05:55:00